Airfield :
LOGIN :

Register | Disclaimer

   EN    FR    IT 

 










Legend :    VFR   Marginal VFR   IFR   Intensive IFR   Very Intensive IFR
Visi :
Ceiling :
>= 8 km
>= 3000ft
5 to 8 km
1000 to 3000 ft
1500m to 5 km
500 to 1000 ft
800 to 1500m
200 to 500 ft
< 800m
< 200 ft
Symbols :   Thunderstorms  Fog  Heavy snow  Heavy precipitations  Wind > 20 kt
SIGMETs :     Misc.  Thunderstorms  Icing  Turbulence  Mountain Waves  Volcanic Ashes







- Airport Elevation : 538 ft
- IATA code : TNF
- Download approach charts


LFPN - Toussus Le Noble

CURRENT METAR :
  • 242130Z AUTO 02005KT CAVOK 17/09 Q1023 NOSIG

EXPIRED METARs :
  • 242100Z AUTO 02007KT CAVOK 18/09 Q1023 NOSIG
  • 242030Z AUTO 02006KT CAVOK 18/09 Q1023 NOSIG
  • 242000Z AUTO 02007KT CAVOK 19/10 Q1022 NOSIG
  • 241930Z AUTO 02006KT 360V060 CAVOK 20/09 Q1022 NOSIG
  • 241900Z AUTO 03006KT 350V060 CAVOK 20/09 Q1022 NOSIG

TAF TAF LFPN
Valid from the 24 at 18:00 until the 25 at 03:00 UTC


241700Z 2418/2503 02008KT CAVOK
ATIS : +33 1 39 56 54 70
No reported NOTAMs for that airfield.



MET'MAP, your aeronautical weather chart ! - Copyright ORBIFLY December 2007 - Disclaimer

ORBIFLY MET'MAP TEAM :

Programming & Development : Alexandra Zaïnal
Concept & Development : Baudouin d'Aumeries
Co-Development & Prog : Marc-Olivier Méhu
Technical & hardware support : Manuel Goepfert

Contact : metmap@orbifly.com




SOURCES & CREDITS :

   NOAA